{"data":{"norad_id":66537,"intl_designator":"2025-265X","name":"STARLINK-35582","alt_names":[],"object_type":"PAYLOAD","status":"ACTIVE","operator":null,"country":"US","launch_date":"2025-11-19","launch_site_code":"AFETR","launch_vehicle":null,"mission":null,"orbit_class":"UNKNOWN","rcs_meters":null,"size_class":null,"mass_kg":null,"dimensions":null,"purposes":["comms"],"wikipedia_slug":null,"has_3d_model":false,"image_url":null,"decayed_at":null,"tle_current":{"epoch":"2026-09-20T08:21:35.140896Z","epoch_age_seconds":102321,"freshness":"FRESH","line1":"1 66537U 25265X   26263.34832339  .00012520  00000+0  46345-3 0  9995","line2":"2 66537  42.9997 258.6274 0002278 286.7159  73.3443 15.27597562 46889","mean_motion":15.27597562,"eccentricity":0.0002278,"inclination_deg":42.9997,"raan_deg":258.6274,"arg_perigee_deg":286.7159,"mean_anomaly_deg":73.3443,"bstar":0.00046345,"rev_number":4688,"period_min":94.265664977541,"perigee_km":481.43354338408,"apogee_km":484.55947581105,"semimajor_km":6861.1335095976,"source":"CELESTRAK","updated_at":"2026-09-21T09:00:35.967724Z"}}}